KE7YUP Weather Reports


time (UTC)temp
C
wind
direction
speed
KPH
gust
KPH
rain 1hr
cm
rain 24hr
cm
rain mn
cm
humidity
%
barometer
mb
20260904110215 18 241 1.6 3.2 0.00 0.00 0.00 22 1016.1
20260904105215 18 234 1.6 3.2 0.00 0.00 0.00 21 1016.4
20260904104215 18 245 8.0 12.9 0.00 0.00 0.00 21 1016.3
20260904103215 18 269 8.0 9.7 0.00 0.00 0.00 22 1016.3
20260904102215 19 233 1.6 6.4 0.00 0.00 0.00 21 1016.5
20260904101215 18 231 3.2 8.0 0.00 0.00 0.00 20 1016.1
20260904100215 18 279 4.8 6.4 0.00 0.00 0.00 28 1015.8
20260904095215 18 62 3.2 4.8 0.00 0.00 0.00 32 1016.2
20260904094215 18 26 6.4 8.0 0.00 0.00 0.00 30 1015.8
20260904093235 18 7 8.0 12.9 0.00 0.00 0.00 30 1015.6
20260904092215 19 56 4.8 8.0 0.00 0.00 0.00 31 1016.0
20260904091217 18 71 6.4 9.7 0.00 0.00 0.00 33 1015.4
20260904090215 18 42 3.2 3.2 0.00 0.00 0.00 21 1015.6
20260904085237 18 42 0.0 6.4 0.00 0.00 0.00 23 1015.2
20260904084215 18 294 3.2 4.8 0.00 0.00 0.00 30 1015.3
20260904083237 19 298 4.8 6.4 0.00 0.00 0.00 33 1015.6
20260904082217 20 119 0.0 4.8 0.00 0.00 0.00 30 1015.7
20260904081217 19 105 3.2 6.4 0.00 0.00 0.00 29 1015.3
20260904080217 19 74 1.6 4.8 0.00 0.00 0.00 33 1015.4
20260904075217 18 302 3.2 4.8 0.00 0.00 0.00 35 1015.0
20260904074216 19 59 1.6 3.2 0.00 0.00 0.00 32 1015.1
20260904073217 20 105 1.6 3.2 0.00 0.00 0.00 30 1015.4
20260904072217 21 220 3.2 3.2 0.00 0.00 0.00 21 1015.4
20260904071216 22 169 1.6 9.7 0.00 0.00 0.00 21 1015.4
20260904070216 22 194 3.2 6.4 0.00 0.00 0.00 17 1015.3
20260904065236 22 173 6.4 16.1 0.00 0.00 0.00 18 1015.2
20260904064237 21 184 3.2 6.4 0.00 0.00 0.00 19 1014.9
20260904063216 22 257 3.2 4.8 0.00 0.00 0.00 19 1015.1
20260904062236 22 158 6.4 16.1 0.00 0.00 0.00 17 1015.0
20260904061216 22 189 6.4 14.5 0.00 0.00 0.00 18 1014.9
20260904060216 22 206 4.8 11.3 0.00 0.00 0.00 18 1015.0
20260904055236 22 200 8.0 12.9 0.00 0.00 0.00 18 1014.9
20260904054216 22 198 8.0 11.3 0.00 0.00 0.00 18 1014.8
20260904053215 23 186 3.2 8.0 0.00 0.00 0.00 18 1014.8
20260904052216 23 194 8.0 12.9 0.00 0.00 0.00 18 1014.8
20260904051216 23 191 11.3 19.3 0.00 0.00 0.00 18 1014.8
20260904050236 23 190 8.0 19.3 0.00 0.00 0.00 18 1014.6
20260904045236 23 194 11.3 16.1 0.00 0.00 0.00 18 1014.8
20260904044215 23 192 9.7 14.5 0.00 0.00 0.00 18 1014.5
20260904043216 23 203 8.0 12.9 0.00 0.00 0.00 18 1014.5
20260904042215 23 209 8.0 14.5 0.00 0.00 0.00 18 1014.4
20260904041216 23 218 8.0 12.9 0.00 0.00 0.00 17 1014.6
20260904040215 24 190 8.0 17.7 0.00 0.00 0.00 17 1014.3
20260904035215 23 201 8.0 16.1 0.00 0.00 0.00 17 1014.3
20260904034215 24 188 8.0 12.9 0.00 0.00 0.00 17 1014.4
20260904033215 24 192 9.7 17.7 0.00 0.00 0.00 17 1014.4
20260904032215 24 176 8.0 14.5 0.00 0.00 0.00 17 1014.0
20260904031235 24 191 8.0 12.9 0.00 0.00 0.00 17 1013.6
20260904030215 23 191 9.7 17.7 0.00 0.00 0.00 18 1013.4
20260904025215 23 192 6.4 11.3 0.00 0.00 0.00 18 1013.5
20260904024215 23 191 8.0 16.1 0.00 0.00 0.00 18 1012.7
20260904023215 24 180 3.2 6.4 0.00 0.00 0.00 18 1013.0
20260904022215 25 193 3.2 6.4 0.00 0.00 0.00 17 1012.9
20260904021215 25 196 6.4 12.9 0.00 0.00 0.00 17 1012.8
20260904020215 25 198 9.7 17.7 0.00 0.00 0.00 16 1012.9
20260904015215 25 188 9.7 17.7 0.00 0.00 0.00 17 1012.9
20260904014255 25 193 14.5 19.3 0.00 0.00 0.00 16 1012.8
20260904013215 26 189 11.3 19.3 0.00 0.00 0.00 16 1013.0
20260904012215 26 198 16.1 22.5 0.00 0.00 0.00 16 1012.9
20260904011215 26 194 17.7 32.2 0.00 0.00 0.00 16 1013.1
20260904010215 26 207 11.3 20.9 0.00 0.00 0.00 16 1013.1
20260904005215 26 210 11.3 27.4 0.00 0.00 0.00 16 1013.2
20260904004215 26 208 12.9 20.9 0.00 0.00 0.00 16 1013.6
20260904003215 27 192 16.1 30.6 0.00 0.00 0.00 15 1013.5
20260904002215 27 197 19.3 25.7 0.00 0.00 0.00 16 1013.6
20260904001215 27 188 8.0 17.7 0.00 0.00 0.00 16 1013.7
20260904000215 27 201 22.5 37.0 0.00 0.00 0.00 16 1013.6
20260903235215 28 190 27.4 41.8 0.00 0.00 0.00 15 1013.7
20260903234217 28 181 20.9 32.2 0.00 0.00 0.00 15 1013.8
20260903233217 27 165 16.1 37.0 0.00 0.00 0.00 15 1013.7
20260903232217 27 170 20.9 38.6 0.00 0.00 0.00 14 1013.6
20260903231217 28 208 17.7 38.6 0.00 0.00 0.00 15 1014.4
20260903230217 28 197 24.1 45.1 0.00 0.00 0.00 14 1014.6
20260903225217 27 195 19.3 29.0 0.00 0.00 0.00 14 1014.8
20260903224217 27 188 25.7 41.8 0.00 0.00 0.00 14 1014.9
20260903223216 27 189 24.1 38.6 0.00 0.00 0.00 14 1015.1
20260903222216 27 233 24.1 35.4 0.00 0.00 0.00 13 1015.2
20260903221216 28 208 14.5 37.0 0.00 0.00 0.00 12 1015.3
20260903220217 27 180 17.7 32.2 0.00 0.00 0.00 13 1015.3
20260903215217 27 192 24.1 37.0 0.00 0.00 0.00 12 1015.4
20260903214217 27 182 14.5 32.2 0.00 0.00 0.00 13 1015.2
20260903213236 27 179 22.5 35.4 0.00 0.00 0.00 13 1015.5
20260903212216 27 189 27.4 40.2 0.00 0.00 0.00 13 1015.7
20260903211236 27 187 19.3 33.8 0.00 0.00 0.00 13 1015.3
20260903210217 27 188 22.5 38.6 0.00 0.00 0.00 14 1015.7
20260903205216 27 189 22.5 41.8 0.00 0.00 0.00 14 1015.8
20260903204216 26 209 12.9 27.4 0.00 0.00 0.00 14 1015.9
20260903203217 26 179 24.1 35.4 0.00 0.00 0.00 14 1016.0
20260903202216 26 223 25.7 41.8 0.00 0.00 0.00 15 1016.1
20260903201236 26 214 14.5 25.7 0.00 0.00 0.00 15 1016.5
20260903200217 26 173 19.3 38.6 0.00 0.00 0.00 14 1016.7
20260903195217 26 220 9.7 19.3 0.00 0.00 0.00 15 1016.8
20260903194216 26 214 20.9 37.0 0.00 0.00 0.00 14 1016.9
20260903193216 25 189 16.1 24.1 0.00 0.00 0.00 14 1017.1
20260903192216 25 180 12.9 19.3 0.00 0.00 0.00 15 1017.2
20260903191256 25 170 14.5 22.5 0.00 0.00 0.00 15 1017.4
20260903190216 25 195 14.5 29.0 0.00 0.00 0.00 15 1017.5
20260903185216 25 205 8.0 20.9 0.00 0.00 0.00 14 1017.5
20260903184236 25 192 9.7 19.3 0.00 0.00 0.00 16 1017.7
20260903183216 25 186 11.3 20.9 0.00 0.00 0.00 15 1017.8
20260903182216 25 183 14.5 27.4 0.00 0.00 0.00 16 1017.9
20260903181216 24 170 17.7 24.1 0.00 0.00 0.00 16 1018.2
20260903180216 24 182 16.1 24.1 0.00 0.00 0.00 17 1018.5
20260903175216 23 160 11.3 19.3 0.00 0.00 0.00 17 1018.3
20260903174216 24 177 6.4 17.7 0.00 0.00 0.00 16 1018.6
20260903173216 24 191 12.9 19.3 0.00 0.00 0.00 17 1018.6
20260903172216 23 163 9.7 16.1 0.00 0.00 0.00 17 1018.7
20260903171216 23 165 11.3 19.3 0.00 0.00 0.00 17 1018.7
20260903170216 23 181 14.5 37.0 0.00 0.00 0.00 17 1018.8
20260903165216 23 186 16.1 30.6 0.00 0.00 0.00 18 1018.8
20260903164216 23 199 16.1 24.1 0.00 0.00 0.00 18 1018.6
20260903163236 22 193 14.5 24.1 0.00 0.00 0.00 18 1018.6
20260903162237 22 177 12.9 22.5 0.00 0.00 0.00 18 1018.7
20260903161216 22 168 9.7 19.3 0.00 0.00 0.00 20 1018.4
20260903160236 21 155 4.8 9.7 0.00 0.00 0.00 35 1018.9
20260903155216 21 93 9.7 14.5 0.00 0.00 0.00 35 1018.8
20260903154215 21 91 3.2 9.7 0.00 0.00 0.00 30 1018.9
20260903153216 21 97 1.6 3.2 0.00 0.00 0.00 28 1018.8
20260903152216 21 127 3.2 6.4 0.00 0.00 0.00 32 1019.1
20260903151216 21 125 1.6 3.2 0.00 0.00 0.00 24 1019.0
20260903150236 20 75 1.6 3.2 0.00 0.00 0.00 20 1018.6
20260903145216 19 12 3.2 8.0 0.00 0.00 0.00 20 1018.5
20260903144256 19 5 3.2 4.8 0.00 0.00 0.00 22 1018.6
20260903143236 18 5 4.8 6.4 0.00 0.00 0.00 24 1018.5
20260903142215 18 263 3.2 6.4 0.00 0.00 0.00 23 1018.1
20260903141216 17 248 6.4 12.9 0.00 0.00 0.00 23 1018.2
20260903140216 17 248 6.4 14.5 0.00 0.00 0.00 23 1017.8
20260903135236 17 261 6.4 9.7 0.00 0.00 0.00 24 1017.9
20260903134216 16 259 8.0 11.3 0.00 0.00 0.00 24 1017.7
20260903133215 16 249 11.3 16.1 0.00 0.00 0.00 24 1017.6
20260903132215 16 257 14.5 20.9 0.00 0.00 0.00 24 1017.5
20260903131215 16 258 8.0 14.5 0.00 0.00 0.00 24 1017.3
20260903130215 16 249 12.9 16.1 0.00 0.00 0.00 24 1017.3
20260903125216 16 244 9.7 12.9 0.00 0.00 0.00 24 1017.1
20260903124215 16 233 8.0 16.1 0.00 0.00 0.00 24 1017.1
20260903123215 16 245 9.7 16.1 0.00 0.00 0.00 25 1017.2
20260903122215 16 251 8.0 12.9 0.00 0.00 0.00 24 1017.0
20260903121215 16 237 8.0 14.5 0.00 0.00 0.00 24 1017.3
20260903120215 16 234 9.7 16.1 0.00 0.00 0.00 24 1017.3
20260903115235 16 267 6.4 11.3 0.00 0.00 0.00 26 1017.1
20260903114218 15 267 3.2 4.8 0.00 0.00 0.00 26 1017.1
20260903113235 15 267 3.2 4.8 0.00 0.00 0.00 26 1017.1
20260903112215 15 267 4.8 6.4 0.00 0.00 0.00 26 1017.0
20260903111215 16 267 4.8 6.4 0.00 0.00 0.00 24 1017.0